Location: Newark
(45.8667°N, 9.7333°E)
Time: 23:55:16
(UTC+00:00)

Vanguard 2 Rocket - Pass Details

Date: 30 January 2020
Orbit: 554 x 3327 km, 32.9° (Epoch: 20 February)

Event Time Altitude Azimuth Distance (km) Brightness Sun altitude
Rises 04:52:55 0° 240° (WSW) 2,747 - -19.8°
Reaches altitude 10° 04:55:31 10° 220° (SW) 1,956 - -19.3°
Exits shadow 04:56:18 13° 210° (SSW) 1,794 8.2 -19.2°
Maximum altitude 04:58:30 18° 175° (S) 1,675 8.4 -18.8°
Drops below altitude 10° 05:02:13 10° 133° (SE) 2,494 9.9 -18.2°
Sets 05:06:09 0° 116° (ESE) 3,873 11.5 -17.5°
